TimeCDT,TemperatureF,Dew PointF,Humidity,Sea Level PressureIn,VisibilityMPH,Wind Direction,Wind SpeedMPH,Gust SpeedMPH,PrecipitationIn,Events,Conditions,WindDirDegrees,DateUTC
12:52 AM,50.0,36.0,59,29.96,-9999.0,SSW,9.2,-,N/A,,Unknown,200,2012-10-09 05:52:00
1:52 AM,48.9,37.0,64,29.95,-9999.0,SSW,8.1,-,N/A,,Unknown,200,2012-10-09 06:52:00
2:52 AM,46.9,37.0,68,29.95,-9999.0,South,6.9,-,N/A,,Unknown,190,2012-10-09 07:52:00
3:52 AM,46.0,37.0,71,29.94,-9999.0,South,4.6,-,N/A,,Unknown,190,2012-10-09 08:52:00
4:52 AM,45.0,37.0,74,29.94,-9999.0,South,5.8,-,N/A,,Unknown,180,2012-10-09 09:52:00
5:52 AM,45.0,36.0,71,29.94,-9999.0,South,4.6,-,N/A,,Unknown,180,2012-10-09 10:52:00
6:52 AM,43.0,36.0,76,29.95,-9999.0,South,3.5,-,N/A,,Unknown,180,2012-10-09 11:52:00
7:52 AM,46.0,37.0,71,29.95,-9999.0,South,5.8,-,N/A,,Unknown,190,2012-10-09 12:52:00
8:52 AM,50.0,39.0,66,29.94,-9999.0,South,11.5,19.6,N/A,,Unknown,190,2012-10-09 13:52:00
9:52 AM,51.1,39.0,63,29.95,-9999.0,SSW,8.1,-,N/A,,Unknown,200,2012-10-09 14:52:00
11:52 AM,61.0,42.1,50,29.94,-9999.0,SSW,8.1,19.6,N/A,,Unknown,200,2012-10-09 16:52:00
12:52 PM,64.0,44.1,48,29.91,-9999.0,SW,6.9,-,N/A,,Unknown,220,2012-10-09 17:52:00
1:52 PM,66.9,45.0,45,29.89,-9999.0,SSW,9.2,-,N/A,,Unknown,200,2012-10-09 18:52:00
2:52 PM,64.0,43.0,46,29.91,-9999.0,Variable,3.5,-,N/A,,Unknown,0,2012-10-09 19:52:00
3:52 PM,63.0,39.9,43,29.91,-9999.0,NW,9.2,-,N/A,,Unknown,310,2012-10-09 20:52:00
4:52 PM,61.0,39.0,44,29.94,-9999.0,Variable,6.9,-,N/A,,Unknown,0,2012-10-09 21:52:00
5:52 PM,57.9,41.0,53,29.97,-9999.0,North,10.4,24.2,N/A,,Unknown,350,2012-10-09 22:52:00
6:52 PM,54.0,41.0,62,30.01,-9999.0,North,8.1,-,N/A,,Unknown,360,2012-10-09 23:52:00
7:52 PM,53.1,39.0,59,30.04,-9999.0,Variable,6.9,-,N/A,,Unknown,0,2012-10-10 00:52:00
8:52 PM,51.1,33.1,50,30.06,-9999.0,Calm,Calm,-,N/A,,Unknown,0,2012-10-10 01:52:00
9:52 PM,46.9,30.9,54,30.09,-9999.0,Calm,Calm,-,N/A,,Unknown,0,2012-10-10 02:52:00
10:52 PM,42.1,30.9,65,30.12,-9999.0,Calm,Calm,-,N/A,,Unknown,0,2012-10-10 03:52:00
11:52 PM,46.0,27.0,47,30.13,-9999.0,Variable,5.8,-,N/A,,Unknown,0,2012-10-10 04:52:00